DateTime,Index
2001091118,0.0
2001091200,0.0
2001091206,0.0
2001091212,0.0
2001091218,0.0
2001091300,0.0
2001091306,0.0
2001091312,1225.0
2001091318,1600.0
2001091400,2025.0
2001091406,2500.0
2001091412,3600.0
2001091418,2025.0
2001091500,1600.0
2001091506,1600.0
2001091512,1600.0
2001091518,2025.0
2001091600,2500.0
2001091606,2500.0
2001091612,3025.0
2001091618,3025.0
2001091700,4225.0
2001091706,4225.0
2001091712,4900.0
2001091718,4900.0
2001091800,3600.0
2001091806,3025.0
2001091812,3025.0
2001091818,3600.0
2001091900,3600.0
2001091906,3025.0
2001091912,3600.0
2001091918,3600.0
2001092000,3600.0
2001092006,3600.0
2001092012,3600.0
2001092018,4225.0
2001092100,4225.0
2001092106,4225.0
2001092112,3600.0
2001092118,3025.0
